Location: Bessat
(45.8735°N, 1.9924°E)
Time: 19:07:28
(UTC+00:00)

Cosmos 1908 Rocket - Pass Details

Date: 11 May 2021
Orbit: 605 x 632 km, 82.5° (Epoch: 21 June)

Event Time Altitude Azimuth Distance (km) Brightness Sun altitude
Rises 23:13:20 0° 351° (N) 2,939 8.4 -25.5°
Reaches altitude 10° 23:15:35 10° 351° (N) 2,026 7.2 -25.6°
Enters shadow 23:19:43 75° 353° (N) 660 3.7 -25.7°
